Flag for Italy Weather past 2 weeks in Bologna, Italy

Now
75 °F

Scattered clouds.


Feels Like: 77 °F
Forecast: 59 / 76 °F
Wind: 9 mph from East

Location: Bologna / Borgo Panigale

Current Time: Sep 4, 2015 at 7:30:56 PM

Latest Report: Sep 4, 2015 at 6:50 PM


Visibility: N/A

Pressure: 29.83 "Hg

Humidity: 74%

Dew point: 66 °F

Location of BolognaLocation

Historic Weather in Bologna — Graph

°F

Bologna temperature yesterday

Maximum temperature yesterday: 86 °F (at 2:50 PM)
Minimum temperature yesterday: 64 °F (at 5:20 AM)
Average temperature yesterday: 76 °F

Past Weeks' High & Low Weather Summary

 TemperatureHumidityPressure
High95 °F (Aug 30, 3:20 PM)100% (Aug 24, 4:50 AM)30.18 "Hg (Aug 24, 4:50 AM)
Low59 °F (Aug 23, 5:50 AM)23% (Sep 1, 3:20 PM)29.77 "Hg (Sep 2, 3:50 PM)
Average77 °F56%29.98 "Hg
* Reported Aug 20 6:20 PM — Sep 4 6:20 PM, Bologna, Weather by CustomWeather, © 2015

Note: Actual official high and low records may vary slightly from our data, if they occured in-between our weather recording intervals... More about our weather records

Advertising

Bologna weather history for previous 24 hours

 ConditionsComfort  
Time TempWeatherWind HumidityBarometerVisibility
6:20 PM
Fri, Sep 4
75 °FScattered clouds.14 mph69%29.83 "HgN/A
5:50 PM77 °FLight rain. Scattered clouds.9 mph65%29.83 "HgN/A
5:20 PM82 °FScattered clouds.14 mph48%29.80 "HgN/A
4:50 PM84 °FScattered clouds.6 mph43%29.80 "HgN/A
4:20 PM86 °FScattered clouds.7 mph40%29.80 "HgN/A
3:50 PM86 °FScattered clouds.6 mph40%29.83 "HgN/A
3:20 PM86 °FScattered clouds.6 mph40%29.83 "HgN/A
2:50 PM86 °FScattered clouds.7 mph40%29.83 "HgN/A
2:20 PM84 °FScattered clouds.6 mph40%29.86 "HgN/A
1:50 PM82 °FScattered clouds.7 mph42%29.86 "HgN/A
1:20 PM84 °FPassing clouds.5 mph40%29.86 "HgN/A
12:50 PM84 °FPassing clouds.5 mph40%29.86 "HgN/A
12:20 PM82 °FPassing clouds.7 mph42%29.89 "HgN/A
11:50 AM82 °FPassing clouds.5 mph42%29.89 "HgN/A
11:20 AM82 °FSunny.3 mph42%29.89 "Hg10 mi
10:50 AM81 °FSunny.3 mph45%29.89 "Hg10 mi
10:20 AM79 °FSunny.2 mph48%29.89 "Hg10 mi
9:50 AM77 °FSunny.3 mph51%29.89 "Hg10 mi
9:20 AM77 °FPassing clouds.3 mph47%29.89 "HgN/A
8:50 AM75 °FSunny.5 mph50%29.89 "Hg10 mi
8:20 AM72 °FSunny.6 mph53%29.89 "Hg10 mi
7:50 AM68 °FSunny.6 mph64%29.89 "Hg10 mi
7:20 AM66 °FClear.7 mph64%29.89 "Hg10 mi
6:50 AM66 °FClear.7 mph64%29.86 "Hg10 mi
6:20 AM64 °FClear.5 mph64%29.86 "Hg10 mi
5:50 AM64 °FClear.6 mph64%29.86 "Hg10 mi
5:20 AM66 °FClear.5 mph60%29.86 "Hg10 mi
4:50 AM66 °FClear.5 mph60%29.86 "Hg10 mi
4:20 AM68 °FClear.3 mph56%29.86 "Hg10 mi
3:50 AM66 °FClear.3 mph60%29.86 "Hg10 mi
3:20 AM66 °FClear.2 mph60%29.86 "Hg10 mi
2:50 AM66 °FClear.2 mph60%29.86 "Hg10 mi
2:20 AM70 °FClear.2 mph53%29.86 "Hg10 mi
1:50 AM68 °FClear.5 mph53%29.86 "Hg10 mi
1:20 AM68 °FClear.2 mph56%29.86 "Hg10 mi
12:50 AM72 °FClear.2 mph50%29.86 "Hg10 mi
12:20 AM70 °FClear.1 mph50%29.86 "Hg10 mi
11:20 PM
Thu, Sep 3
73 °FClear.3 mph47%29.83 "Hg10 mi
10:50 PM73 °FPassing clouds.6 mph44%29.83 "HgN/A
10:20 PM75 °FClear.9 mph44%29.83 "Hg10 mi
9:50 PM77 °FClear.5 mph44%29.83 "Hg10 mi
9:20 PM75 °FPassing clouds.3 mph47%29.83 "HgN/A
8:50 PM79 °FClear.5 mph39%29.83 "Hg10 mi
8:20 PM77 °FSunny.1 mph42%29.83 "Hg10 mi
7:50 PM79 °FSunny.2 mph39%29.80 "Hg10 mi
7:20 PM81 °FPassing clouds.3 mph37%29.83 "HgN/A
Weather by CustomWeather, © 2015

See weather overviewHow to use our weather pages